TimeEST,TemperatureF,Dew PointF,Humidity,Sea Level PressureIn,VisibilityMPH,Wind Direction,Wind SpeedMPH,Gust SpeedMPH,PrecipitationIn,Events,Conditions,WindDirDegrees,DateUTC
12:53 AM,61.0,48.0,62,30.15,10.0,SSW,3.5,-,N/A,,Clear,210,2008-01-08 05:53:00
1:53 AM,59.0,46.9,64,30.14,10.0,SSW,3.5,-,N/A,,Clear,200,2008-01-08 06:53:00
2:53 AM,60.1,46.9,62,30.14,10.0,SSW,4.6,-,N/A,,Clear,200,2008-01-08 07:53:00
3:53 AM,57.9,46.0,65,30.14,10.0,SSW,4.6,-,N/A,,Clear,200,2008-01-08 08:53:00
4:53 AM,57.0,45.0,64,30.13,10.0,South,4.6,-,N/A,,Clear,190,2008-01-08 09:53:00
5:53 AM,59.0,44.1,58,30.13,10.0,South,4.6,-,N/A,,Clear,190,2008-01-08 10:53:00
6:53 AM,57.9,44.1,60,30.12,10.0,SSW,4.6,-,N/A,,Clear,200,2008-01-08 11:53:00
7:53 AM,57.9,43.0,58,30.12,10.0,South,4.6,-,N/A,,Clear,180,2008-01-08 12:53:00
8:53 AM,61.0,43.0,52,30.13,10.0,South,9.2,-,N/A,,Clear,180,2008-01-08 13:53:00
9:53 AM,64.0,43.0,46,30.12,10.0,South,10.4,17.3,N/A,,Clear,190,2008-01-08 14:53:00
10:53 AM,66.0,43.0,43,30.09,10.0,South,12.7,19.6,N/A,,Scattered Clouds,190,2008-01-08 15:53:00
11:53 AM,68.0,42.1,39,30.04,10.0,SW,16.1,24.2,N/A,,Clear,220,2008-01-08 16:53:00
12:53 PM,69.1,42.1,38,29.98,10.0,SSW,11.5,19.6,N/A,,Scattered Clouds,210,2008-01-08 17:53:00
1:53 PM,71.1,43.0,36,29.96,10.0,SW,13.8,25.3,N/A,,Mostly Cloudy,220,2008-01-08 18:53:00
2:53 PM,70.0,43.0,38,29.94,10.0,SSW,9.2,21.9,N/A,,Mostly Cloudy,210,2008-01-08 19:53:00
3:53 PM,70.0,43.0,38,29.94,10.0,SSW,9.2,18.4,N/A,,Partly Cloudy,210,2008-01-08 20:53:00
4:53 PM,68.0,42.1,39,29.92,10.0,South,11.5,-,N/A,,Mostly Cloudy,190,2008-01-08 21:53:00
5:53 PM,66.0,42.1,42,29.90,10.0,South,6.9,-,N/A,,Clear,180,2008-01-08 22:53:00
6:53 PM,66.0,42.1,42,29.89,10.0,South,5.8,-,N/A,,Clear,170,2008-01-08 23:53:00
7:53 PM,64.9,42.1,43,29.86,10.0,South,8.1,-,N/A,,Clear,180,2008-01-09 00:53:00
8:53 PM,64.9,43.0,45,29.84,10.0,South,5.8,-,N/A,,Scattered Clouds,180,2008-01-09 01:53:00
9:53 PM,64.0,44.1,48,29.80,10.0,South,10.4,20.7,N/A,,Clear,180,2008-01-09 02:53:00
10:53 PM,64.0,44.1,48,29.77,10.0,Variable,6.9,24.2,N/A,,Clear,0,2008-01-09 03:53:00
11:53 PM,64.0,44.1,48,29.72,10.0,South,12.7,21.9,N/A,,Partly Cloudy,180,2008-01-09 04:53:00